This is the latest recevied weather packets stored in our database for station/object DL3TR-13. If no packets are shown the sender has not sent any weather packets the latest 10 day(s).
| Time | Temp. | Humidity | Pressure | Rain* | Wind** | Luminosity | Snow |
|---|---|---|---|---|---|---|---|
| 1777639990 | 21.11° C | 26% | 1023.6 hPa | 0 mm | - | 779 W/m² | - |
| 1777639390 | 21.11° C | 27% | 1023.7 hPa | 0 mm | - | 789 W/m² | - |
| 1777638790 | 21.11° C | 26% | 1023.8 hPa | 0 mm | - | 798 W/m² | - |
| 1777638190 | 20.56° C | 28% | 1023.8 hPa | 0 mm | - | 809 W/m² | - |
| 1777637590 | 20.56° C | 28% | 1023.9 hPa | 0 mm | - | 816 W/m² | - |
| 1777636990 | 20.56° C | 27% | 1023.9 hPa | 0 mm | - | 823 W/m² | - |
| 1777636390 | 20.56° C | 29% | 1023.9 hPa | 0 mm | - | 828 W/m² | - |
| 1777635790 | 20.56° C | 28% | 1023.9 hPa | 0 mm | - | 830 W/m² | - |
| 1777635190 | 19.44° C | 36% | 1024 hPa | 0 mm | - | 828 W/m² | - |
| 1777634590 | 19.44° C | 34% | 1024.1 hPa | 0 mm | - | 833 W/m² | - |
| 1777633990 | 19.44° C | 35% | 1024 hPa | 0 mm | - | 830 W/m² | - |
| 1777633390 | 18.89° C | 34% | 1024.2 hPa | 0 mm | - | 826 W/m² | - |
| 1777632790 | 19.44° C | 36% | 1024.3 hPa | 0 mm | - | 824 W/m² | - |
| 1777632190 | 18.89° C | 38% | 1024.4 hPa | 0 mm | - | 819 W/m² | - |
| 1777631590 | 18.33° C | 38% | 1024.5 hPa | 0 mm | - | 812 W/m² | - |
| 1777630990 | 18.33° C | 43% | 1024.5 hPa | 0 mm | - | 802 W/m² | - |
| 1777630390 | 17.78° C | 39% | 1024.6 hPa | 0 mm | - | 791 W/m² | - |
| 1777629790 | 17.22° C | 40% | 1024.6 hPa | 0 mm | - | 786 W/m² | - |
| 1777629190 | 17.22° C | 40% | 1024.6 hPa | 0 mm | - | 773 W/m² | - |
| 1777628590 | 16.67° C | 42% | 1024.7 hPa | 0 mm | - | 763 W/m² | - |
| 1777627990 | 16.11° C | 42% | 1024.7 hPa | 0 mm | - | 751 W/m² | - |
| 1777627390 | 16.11° C | 45% | 1024.8 hPa | 0 mm | - | 737 W/m² | - |
| 1777626790 | 15.56° C | 46% | 1024.9 hPa | 0 mm | - | 722 W/m² | - |
| 1777626192 | 15° C | 44% | 1025 hPa | 0 mm | - | 703 W/m² | - |
| 1777625592 | 15.56° C | 43% | 1025 hPa | 0 mm | - | 686 W/m² | - |
* Rain latest hour (hover to see other rain measurements)
** Current wind speed in m/s (hover to see current wind gust speed)